Regional Weather Roundup
Issued by NWS Pendleton, OR

Home | Current Version | Previous Version | Text Only | Print | Product List | Glossary On
Versions: 1 2 3 4 5 6 7 8 9 10 11 12 13 14 15 16 17 18 19 20 21 22 23 24 25 26 27 28 29 30 31 32 33 34 35 36 37 38 39 40 41 42 43 44 45 46 47 48 49 50
000
ASUS46 KPDT 212325
RWRPDT
PENDLETON REGIONAL WEATHER ROUNDUP
NATIONAL WEATHER SERVICE PENDLETON OREGON
300 PM PST WED FEB 21 2018

NOTE: FAIR INDICATES FEW OR NO CLOUDS BELOW 12,000 FEET WITH NO
SIGNIFICANT WEATHER AND/OR OBSTRUCTIONS TO VISIBILITY.

# INDICATES UNOFFICIAL STATION AND DATA

WAZ520-220010-
EAST SLOPES OF WASHINGTON CASCADES

CITY            SKY/WX      TMP DP  RH  WIND    PRES   REMARKS
#BULLFROG       N/A         27  13  55  N1      N/A
#CLE ELUM HS    N/A         28  14  55  CALM    30.07F
#EASTON DOT     N/A         24  17  74  N1      N/A
#ELK HTS DOT    N/A         24  24  100 E1      N/A
#GLENWOOD       N/A         27  19  71  CALM    30.29F
#NELSON 3SW     N/A         23  17  77  CALM    30.50F
#NILE           N/A         26  16  65  CALM    29.46F
#TEANAWAY 4NE   N/A         26  15  63  S1      N/A
#TROUT LAKE 1NE N/A         27  17  65  CALM    30.29F
#TROUT LAKE 1E  N/A         29  18  63  CALM    30.20F
$$

WAZ521-220010-
SIMCOE HIGHLANDS

CITY            SKY/WX      TMP DP  RH  WIND    PRES   REMARKS
#BICKLETON HS   N/A         20  10  64  W9      29.73R
#SATUS PASS DOT N/A         20   6  54  N7      N/A
#CENTERVILLE 1SWN/A         24  12  60  CALM    30.28F
#GOLDENDALE 1NE N/A         29   3  32  S5      N/A
#GOLDENDALE 4W  N/A         26  -3  27  SW3     30.23F
#GOODNOE HILLS  N/A         31  12  45  SW7     30.13F
#LYLE 6NE       N/A         24  17  74  CALM    30.33R
#PITT 4SE       N/A         22  14  71  CALM    30.35S
$$

WAZ026-220010-
KITTITAS VALLEY

CITY            SKY/WX      TMP DP  RH  WIND    PRES   REMARKS
ELLENSBURG AP   CLOUDY      28  13  53  NW3     30.16F
#ELLENSBURG CWU N/A         26  14  60  CALM    30.22F
#ELLENSBURG 3NE N/A         25  15  65  CALM    28.23F
#ELLENSBURG 1E  N/A         27  15  60  CALM    30.33F
#KITTITAS 3S    N/A         27  15  60  CALM    30.26F
#MANASTASH RDG  N/A         23  23  100 S6      N/A
#ROCKY CYN DOT  N/A         25  12  57  E3      N/A
#RYEGRASS DOT   N/A         23  11  59  CALM    N/A
$$

WAZ027-220010-
YAKIMA VALLEY

CITY            SKY/WX      TMP DP  RH  WIND    PRES   REMARKS
SUNNYSIDE AP    PTCLDY      29  12  48  SE8     30.26F
YAKIMA AIRPORT  PTCLDY      32  16  51  VRB5    30.22F
YAKIMA-VAGABOND MOSUNNY     29  13  51  SW5     30.18F
#DONALD 2NE     N/A         33  -18 10  SW5     29.06F
#GRANDVIEW      N/A         30  10  42  S1      30.32F
#MABTON         N/A         30  18  60  SE6     30.25F
#MOXEE 2E       N/A         35  N/A N/A E3      29.93S
#NACHES 2SW     N/A         28  18  66  S1      30.25S
#OUTLOOK DOT    N/A         30  14  51  E5      30.21F
#PARKER DOT     N/A         31  13  47  CALM    30.22F
#TERRACE HTS    N/A         30  15  53  CALM    30.26F
#TOPPENISH      N/A         31  16  53  CALM    30.21F
#I82 S UMTANUM RN/A         27  13  55  SW5     N/A
#UNION GAP DOT  N/A         31  14  49  S1      30.26F
#W YAKIMA       N/A         28  16  60  SW2     30.29F
#WHITE SWAN 5E  N/A         30  19  63  CALM    30.30F
#WILEY CITY 3W  N/A         29  13  51  CALM    30.16F
#ZILLAH DOT     N/A         30  14  51  E8      N/A
$$

WAZ028-220010-
LOWER COLUMBIA BASIN...WASHINGTON

CITY            SKY/WX      TMP DP  RH  WIND    PRES   REMARKS
PASCO           FAIR        33  13  43  S8      30.29F
PROSSER AWOS    N/A         30  14  51  S9      30.29F
RICHLAND AWOS   FAIR        34  17  49  S7      30.28F
#BENTON CITY    N/A         31  16  53  CALM    30.21F
#CONNELL 5N     N/A         29  14  53  SW1     30.31F
#CONNELL 5NW    N/A         29  14  53  S2      30.26F
#ELTOPIA 6NW    N/A         29  13  51  CALM    29.21F
#KAHLOTUS       N/A         29  12  48  W5      30.31F
#KENNEWICK 3S   N/A         32  17  53  S1      30.32F
#PATERSON       N/A         29  16  58  W3      30.30F
#PROSSER DOT    N/A         31  12  45  S2      30.27F
#SAGEMOOR 2W    N/A         30  13  49  SW5     30.18F
#TOUCHET 2S     N/A         33  16  49  CALM    30.29F
#WEST PASCO     N/A         37  17  44  CALM    30.30F
$$

WAZ029-220010-
FOOTHILLS OF THE BLUES...WASHINGTON

CITY            SKY/WX      TMP DP  RH  WIND    PRES   REMARKS
WALLA WALLA AP  CLOUDY      30  18  60  S5      30.23F
#CLYDE 6NW      N/A         28  10  46  SW6     30.30F
#DELANEY DOT    N/A         32  15  49  NW2     30.26F
#LOWDEN 2SE     N/A         34  16  47  CALM    30.24F
#PLEASANT VIEW 1N/A         28  16  60  S2      30.34F
#PRESCOTT       N/A         34  19  54  CALM    30.29F
#WHITMAN COLLEGEN/A         30  18  60  S1      30.35F
#WAITSBURG 6SSE N/A         26  16  65  SE2     30.13F
#WALLA WALLA 5E N/A         30  21  69  S2      N/A
#WHITMAN MISSIONN/A         33  17  51  CALM    30.32F
$$

WAZ030-220010-
BLUE MOUNTAINS...WASHINGTON

CITY            SKY/WX      TMP DP  RH  WIND    PRES   REMARKS
#DIXIE 5SE      N/A         20  18  92  W6      30.03F
$$

ORZ009-041-WAZ024-220010-
COLUMBIA RIVER GORGE

CITY            SKY/WX      TMP DP  RH  WIND    PRES   REMARKS
HOOD RIVER AP   CLOUDY      30  18  60  CALM    30.28F
THE DALLES AP   PTCLDY      32  15  49  CALM    30.31F
#ARLINGTON AIRPON/A         27  16  63  S3      30.32F
#ARLINGTON HS   N/A         31  14  49  W2      30.21F
#CELILO DOT     N/A         33  13  43  N2      N/A
#LYLE           N/A         31  18  58  SE5     30.33F
#MARYHILL       N/A         28  16  60  N3      N/A
#MURDOCK        N/A         31  18  58  CALM    30.28F
#RUFUS DOT      N/A         32  N/A N/A NW3     N/A
#SMITHVILLE     N/A         32  17  53  CALM    30.28F

$$

ORZ510-220010-
NORTH CENTRAL OREGON

CITY            SKY/WX      TMP DP  RH  WIND    PRES   REMARKS
#ANTELOPE       N/A         22  15  74  SW3     30.19F
#CHENOWITH 1W   N/A         27  13  55  CALM    N/A
#COW CYN RST AREN/A         22  12  65  SW3     N/A
#DUFUR          N/A         25  15  65  N1      30.28F
#DUFUR 9E       N/A         23  14  68  E7      30.37S
#GRASS VALLEY 1SN/A         25  19  78  W2      30.15F
#KENT DOT       N/A         25  11  55  SW3     N/A
#MAUPIN SCHOOL  N/A         31  18  58  SE1     30.27F
#SHANIKO 5WSW   N/A         18  N/A N/A S10     N/A
#SHANIKO 4NW    N/A         18  17  96  S5      30.06F
#TYGH VALLEY 2NEN/A         29  18  63  N1      30.28F
#WAPANITIA AIRPON/A         27  19  71  NE1     30.31F
#WASCO DOT      N/A         26  11  52  E3      N/A
#WASCO 5NE      N/A         21  13  71  SW2     30.32F
$$

ORZ511-220010-
CENTRAL OREGON

CITY            SKY/WX      TMP DP  RH  WIND    PRES   REMARKS
BEND AIRPORT    PTCLDY      28  18  66  E3      30.08F
PRINEVILLE AP   PTCLDY      25  19  78  NE5     30.09F
REDMOND AIRPORT PTCLDY      27  19  71  E5      30.09F
#ASHWOOD SCHOOL N/A         25  18  74  N2      30.09F
#BEND 1SW       N/A         26  20  78  N3      N/A
#BEND-AWBREY    N/A         27  21  78  CALM    30.24F
#BEND-KIM LN    N/A         26  20  78  E1      30.18F
#CULVER         N/A         26  18  71  CALM    30.09F
#CULVER 8W      N/A         29  14  53  CALM    30.11F
#LAKE BILLY CHINN/A         28  N/A N/A SE3     30.20F
#POWELL BUTTE   N/A         26  14  60  E2      30.01F
#PRINEVILLE     N/A         26  20  78  CALM    30.34F
#PRINEVILLE 3N  N/A         26  20  78  CALM    30.24F
#WARM SPRINGS   N/A         29  20  69  CALM    30.10F

$$


ORZ509-220010-
EAST SLOPES OF OREGON CASCADES

CITY            SKY/WX      TMP DP  RH  WIND    PRES   REMARKS
SISTERS AWOS    N/A         27  19  71  E5      30.05F
#BLUE BOX PASS  N/A         24  N/A N/A SW3     N/A
#CAMP SHERMAN   N/A         34  21  58  SW1     30.26F
#LA PINE DOT    N/A         33  19  56  W6      N/A
#LA PINE 4NW    N/A         30  19  63  W2      30.27S
#LAVA BUTTE DOT N/A         28  17  63  SW1     N/A
#SISTERS ODOT   N/A         27  17  65  CALM    N/A
#SISTERS 3N     N/A         30  14  51  SE2     30.35F
#SUNRIVER       N/A         32  22  66  SW2     30.23F
#TUMALO 3W      N/A         26  20  78  E1      30.12F
#WANOGA BUTTE D N/A         22  11  62  W8      N/A

$$

ORZ044-220010-
LOWER COLUMBIA BASIN...OREGON

CITY            SKY/WX      TMP DP  RH  WIND    PRES   REMARKS
HERMISTON       FAIR        31  17  56  S8      30.26F
#BOARDMAN SCHOOLN/A         31  17  56  SW3     30.28F
#BOARDMAN 8SW   N/A         29  18  63  SW3     30.31F
#ECHO 8SW       N/A         27  14  57  CALM    30.28F
#I-84 EX 198 DOTN/A         27  17  65  NE2     N/A
#IONE SCHOOL    N/A         25  13  60  CALM    30.33F
#UMATILLA       N/A         32  15  49  CALM    30.24F
$$

ORZ507-220010-
NORTHERN FOOTHILLS OF THE BLUES

CITY            SKY/WX      TMP DP  RH  WIND    PRES   REMARKS
PENDLETON AIRPT FAIR        27  18  68  SW3     30.21F
#ADAMS 3WNW     N/A         27  21  78  SW6     30.29F
#ATHENA         N/A         26  20  78  CALM    30.34F
#CAYUSE         N/A         26  19  74  S2      30.30F
#HELIX SCHOOL   N/A         29  18  63  N5      30.30F
#HELIX 3N       N/A         27  19  71  SW6     30.18F
#HOLDMAN 5SE    N/A         28  19  68  SW5     30.20F
#HOLDMAN 6E     N/A         27  18  68  SW2     30.09F
#M-F GROVE ELEM N/A         30  15  53  CALM    30.21F
#M-FREEWATER 5SEN/A         28  20  71  CALM    30.21F
#PENDLETON DNTN N/A         31  17  56  S5      N/A
#PDT AQUATIC CTRN/A         30  20  66  S3      30.24S
#PDT SUNRIDGE   N/A         27  19  71  SE5     30.25F
#PENDLETON 6SE  N/A         26  19  74  S2      30.27F
#PENDLETON 7NW  N/A         30  19  63  CALM    25.40S
#PILOT ROCK 1S  N/A         24  13  62  CALM    30.20F
#PILOT ROCK     N/A         28  18  66  CALM    30.20F
#TUTUILLA       N/A         23  17  77  CALM    30.28F
#UMAPINE 2E     N/A         33  19  56  CALM    30.23F

$$

ORZ508-220010-
SOUTHERN FOOTHILLS OF THE BLUES

CITY            SKY/WX      TMP DP  RH  WIND    PRES   REMARKS
#AJAX           N/A         25   9  50  CALM    30.30F
#CONDON 5W      N/A         20  16  84  SW6     30.05F
#FOSSIL SCHOOL  N/A         27  18  68  W3      30.05F
#HEPPNER EOC    N/A         26  19  74  CALM    30.23F
#HEPPNER 4NE    N/A         23  19  84  S1      30.28F
#LEXINGTON 2SE  N/A         26  19  74  CALM    30.18F
#MIKKALO        N/A         25  11  55  CALM    30.30F
#OLEX 4N        N/A         26  18  71  CALM    30.21F
#RUGGS 5NE      N/A         26  14  60  S1      30.27F
#RUGGS 2SW      N/A         20  17  88  E1      30.32F

$$

ORZ502-503-220010-
BLUE MOUNTAINS

CITY            SKY/WX      TMP DP  RH  WIND    PRES   REMARKS
MEACHAM         CLOUDY      21  16  81  VRB3    30.06R
#BATTLE MTN DOT N/A         18  12  77  N2      N/A
#GRANITE        N/A         27   7  42  S3      29.59F
#HARDMAN 10S    N/A         20  16  84  S3      30.41F
#LADD CYN SMT   N/A         25  13  60  E3      N/A
#LADD CREEK ODOTN/A         30  16  55  S3      N/A
#N POWDER DOT   N/A         27  15  60  SE5     N/A
#PIKES PEAK     N/A         17  13  84  S3      27.99S
#SUMMERVILLE 5NWN/A         28  17  63  CALM    28.00F
#TOLLGATE       N/A         18  17  96  CALM    30.02F
#TROY SCHOOL    N/A         35  20  54  CALM    30.09F
#UKIAH          N/A         28  18  66  S2      30.17F
#WESTON 4E      N/A         20  18  92  CALM    30.28F
$$

ORZ505-220010-
JOHN DAY BASIN

CITY            SKY/WX      TMP DP  RH  WIND    PRES   REMARKS
JOHN DAY        PTCLDY      28  20  71  CALM    30.06F
#ANTELOPE 9ESE  N/A         30  19  63  NE2     N/A
#DAYVILLE SCHOOLN/A         30  18  60  N1      30.08F
#MITCHELL 8NW   N/A         23  18  81  CALM    30.33F
#MONUMENT HS    N/A         31  18  58  CALM    30.11F
#MT. VERNON 5SE N/A         25  18  74  CALM    29.99F
#SPRAY SCHOOL   N/A         29  N/A N/A CALM    N/A
$$

ORZ506-220010-
OCHOCO AND JOHN DAY HIGHLANDS

CITY            SKY/WX      TMP DP  RH  WIND    PRES   REMARKS
#HORSE RIDGE DO N/A         27  18  68  E1      N/A
#IZEE 6NW       N/A         32  18  56  E2      N/A
#KEYES SMT DOT  N/A         21  18  88  NW3     N/A
#PAULINA ODOT   N/A         28  17  63  SW2     N/A
#PINE MTN OBS   N/A         19  17  92  CALM    N/A
#PRAIRIE CITY   N/A         30  16  55  CALM    30.22F
#SENECA         N/A         26  N/A N/A N2      N/A
#SENECA 9NW     N/A         25  19  78  CALM    30.21F
$$

ORZ049-220010-
GRANDE RONDE VALLEY

CITY            SKY/WX      TMP DP  RH  WIND    PRES   REMARKS
LA GRANDE       MOCLDY      28  16  60  S15     30.12F WCI 16
#COVE SCHOOL    N/A         30  19  63  CALM    30.10F
#COVE 6NW       N/A         30  19  63  S7      30.27F
#ELGIN 3N       N/A         27   9  46  S3      30.07F
#ELGIN 1E       N/A         31  18  58  CALM    N/A
#IMBLER SCHOOL  N/A         27  16  63  CALM    30.07F
#ISLAND CITY 4N N/A         36  29  75  CALM    30.31S
#LADD CYN DOT   N/A         27  15  60  S14     N/A    WCI 16
#UNION 1S       N/A         29  18  63  S7      30.27F
$$

ORZ050-220010-
WALLOWA COUNTY

CITY            SKY/WX      TMP DP  RH  WIND    PRES   REMARKS
#ENTERPRISE HS  N/A         24  14  65  CALM    30.19S
#IMNAHA SCHOOL  N/A         33  20  58  NW5     30.13S
#IMNAHA 10S     N/A         30  14  51  SW9     30.08S
#LOSTINE        N/A         24  13  62  CALM    30.11S
#LOSTINE 3SE    N/A         26  12  55  CALM    30.12S
#MT HOWARD 8000 N/A         10   6  83  CALM    29.75R
#WALLOWA LAKE   N/A         21  13  71  CALM    30.03S
#WALLOWA SCHOOL N/A         26  16  65  CALM    30.06F



$$



USA.gov is the U.S. government's official web portal to all federal, state and local government web resources and services.